GEFSCGP_850_meantemp_048.txt.gz
Temperature
24 25 24 24 24 24 24 24 24 25 24 24 24 24 23 21 21 21 20 20 20 19 19 19 19 20 21 21 22 22 21 21 20 20 20 19 19 18 18 18 17 17 17 17
25 24 24 24 24 24 24 24 24 24 24 24 24 24 23 21 20 19 19 19 19 18 19 19 19 19 20 21 21 21 21 21 20 20 20 20 19 18 18 18 18 17 17 17
24 23 23 23 23 23 23 23 23 22 23 23 23 23 22 21 20 20 19 18 18 17 17 17 18 18 19 20 20 21 21 21 20 20 20 19 19 18 18 18 17 17 17 17
23 22 23 22 22 22 22 22 21 22 22 23 23 23 23 21 21 20 19 18 17 17 17 17 17 17 18 19 19 20 20 20 19 19 19 19 19 18 18 17 17 17 17 17
22 21 21 21 20 20 21 21 21 21 22 22 23 22 22 21 19 19 18 17 17 16 16 16 16 16 17 18 18 19 19 19 19 18 18 18 18 17 17 16 17 17 17 17
21 20 20 20 20 20 20 21 21 21 21 21 22 22 20 18 17 17 17 17 16 16 16 15 15 15 16 17 17 18 18 18 18 17 17 17 17 17 16 16 16 16 17 17
21 20 20 20 20 20 20 20 20 20 20 20 21 20 17 16 17 16 16 16 15 15 15 15 15 15 15 16 16 16 17 17 17 17 16 16 16 16 16 16 16 16 16 16
20 20 19 19 18 18 19 19 18 17 18 18 19 18 16 16 16 15 15 15 15 14 14 14 14 14 15 15 15 16 16 16 16 16 16 16 16 16 16 16 16 16 16 16
20 19 19 18 18 18 18 18 18 17 17 17 17 17 16 16 16 15 14 14 14 14 14 14 14 14 14 14 15 15 15 15 15 15 16 16 16 16 16 16 16 16 16 16
19 19 18 18 18 18 17 17 17 17 16 16 17 15 14 13 14 14 14 13 13 13 13 13 13 14 14 14 14 15 15 15 15 15 15 15 16 16 16 16 16 16 16 16
18 19 18 18 16 16 16 16 16 16 16 15 15 14 13 12 12 12 12 12 12 12 13 13 13 13 14 14 14 14 15 15 15 15 15 15 16 16 16 16 16 16 16 16
17 19 18 17 16 16 16 15 15 15 16 16 15 13 13 12 11 11 11 11 12 12 12 13 13 13 13 14 14 14 15 15 15 15 15 15 16 16 16 16 16 16 16 16
17 18 18 18 17 16 15 15 16 16 15 15 14 13 13 12 12 12 11 11 12 12 12 12 12 13 13 13 13 14 14 14 14 15 15 15 15 15 15 16 16 16 16 16
17 18 17 16 15 15 14 15 15 16 15 14 13 13 13 12 12 12 11 11 12 12 12 12 12 12 12 13 13 13 14 14 14 14 15 15 15 15 15 15 15 15 15 15
18 17 16 15 15 15 14 14 15 15 14 14 13 13 12 12 12 12 12 12 12 12 12 12 12 12 12 12 13 13 13 13 13 14 14 14 14 14 15 15 15 15 15 15
18 17 16 16 15 15 15 15 15 14 14 14 14 14 13 13 13 13 13 13 13 13 12 12 12 12 12 12 12 12 13 13 13 13 13 13 13 14 14 14 14 14 15 15
17 17 17 17 16 15 16 15 14 14 14 14 14 14 14 14 13 13 13 13 13 13 13 13 12 12 12 12 12 12 12 12 12 13 13 13 13 13 13 13 13 14 14 14
17 17 17 17 16 15 16 15 14 14 14 14 14 14 13 13 13 13 13 13 13 13 13 13 13 13 13 12 12 12 12 12 12 12 12 12 12 12 12 13 13 13 13 14
16 17 17 17 17 17 15 15 15 15 15 15 14 14 14 13 14 15 13 12 12 12 13 13 13 13 13 13 13 13 13 12 12 12 12 12 12 12 12 12 12 13 13 13
15 16 17 17 17 17 17 16 14 14 15 15 14 14 13 14 17 16 13 12 12 13 13 13 13 13 13 13 13 13 13 12 12 11 11 11 12 12 12 12 12 12 12 12
17 16 17 17 17 17 16 14 13 15 16 14 13 13 13 14 14 13 12 12 12 13 13 14 14 14 13 13 13 13 13 12 12 12 11 12 12 12 12 12 12 12 12 12
18 17 17 17 17 17 15 14 15 16 14 13 13 13 12 12 12 12 12 12 13 13 13 14 14 14 14 14 13 13 13 12 12 12 12 11 12 12 12 12 12 12 11 11
17 18 18 17 18 15 14 15 14 13 14 13 13 12 12 12 12 12 12 13 13 13 13 14 14 14 14 14 14 13 13 13 12 12 11 11 11 11 11 11 11 11 11 11
17 15 16 16 16 14 13 13 13 13 13 12 12 12 12 12 12 12 13 13 13 13 13 14 14 14 14 14 14 14 13 13 12 12 11 11 11 11 11 11 11 11 11 11
17 15 16 16 16 14 13 13 13 12 12 12 12 12 12 12 12 12 12 12 12 13 13 13 14 14 14 14 14 14 14 13 12 12 12 11 11 11 11 11 11 11 10 10
16 16 16 17 16 16 15 13 13 12 12 12 12 12 12 11 11 12 12 12 12 12 13 13 14 14 14 14 14 14 14 13 13 12 12 11 11 11 10 10 10 10 10 10

GEFSCGP_850_meantemp_054.txt.gz
Temperature
28 27 26 26 26 26 26 26 26 27 27 26 26 26 26 25 24 24 24 23 23 22 21 21 20 21 21 21 22 22 23 23 22 22 21 20 20 20 20 19 19 19 19 19
28 26 26 27 27 26 26 26 26 26 26 26 25 25 25 24 23 22 22 21 21 20 20 20 19 19 20 20 20 21 22 22 22 22 21 20 20 20 19 19 19 19 19 18
26 25 26 26 26 25 25 25 24 24 24 25 25 24 24 22 21 20 20 19 19 19 19 19 18 18 19 19 19 20 21 21 21 21 21 20 20 19 19 19 19 18 18 18
26 26 25 25 24 24 23 24 23 23 23 23 24 22 21 20 19 18 18 18 18 18 18 18 18 17 17 17 18 19 20 20 21 21 20 20 20 19 19 19 19 18 18 18
24 24 24 23 23 23 23 24 23 23 23 23 23 23 20 18 17 17 17 17 17 17 17 17 17 16 16 17 17 18 19 19 20 20 19 19 19 19 18 18 18 18 17 17
24 24 23 23 23 24 24 24 24 24 23 22 22 21 17 16 15 16 16 16 16 16 16 16 16 16 16 16 16 17 17 18 18 19 19 18 18 18 18 17 17 17 17 17
24 23 23 22 22 23 23 22 22 22 21 21 21 19 15 15 15 15 15 15 15 15 15 15 15 15 15 15 15 16 16 17 17 17 17 17 17 17 17 17 16 16 16 16
25 23 22 22 21 21 22 22 20 19 20 20 20 17 15 15 15 14 14 14 14 14 14 14 14 14 14 15 15 15 15 16 16 16 16 17 16 16 16 16 16 16 16 16
24 22 22 22 22 21 21 21 21 20 20 19 18 16 16 15 15 14 14 13 13 13 13 13 13 14 14 14 14 14 15 15 15 15 16 16 16 15 15 15 15 15 15 15
23 22 22 22 22 22 21 21 20 19 18 18 17 15 13 13 13 13 13 12 12 12 13 13 13 13 13 14 14 14 14 14 14 15 15 15 15 15 15 15 15 15 15 15
22 23 22 21 20 19 20 20 19 19 19 17 16 14 14 13 13 12 12 12 12 12 12 12 12 13 13 13 14 14 14 14 14 14 14 15 15 15 15 15 15 15 15 15
22 22 22 20 20 21 20 19 19 18 17 17 16 14 14 13 13 12 12 12 12 12 12 12 13 13 13 13 13 13 14 14 14 14 14 14 14 14 15 15 15 15 15 16
20 22 21 20 20 20 19 19 19 19 18 16 15 14 15 14 14 13 13 13 13 13 13 13 13 13 13 13 13 13 13 13 13 14 14 14 14 14 15 15 15 15 15 15
18 21 20 19 18 19 19 19 19 19 17 16 15 15 15 15 15 14 14 14 14 14 14 14 13 13 13 13 13 13 13 13 13 13 13 14 14 14 14 15 15 15 15 15
21 21 20 19 19 19 19 19 19 18 17 16 16 16 15 16 15 15 15 15 15 14 14 14 14 14 14 14 14 13 13 13 13 13 13 13 13 13 14 14 14 15 15 15
22 21 21 20 20 20 19 19 19 18 18 17 17 16 17 16 16 16 16 15 15 15 15 14 14 14 14 14 14 14 13 13 13 13 13 13 13 13 13 13 14 14 14 15
22 22 21 21 20 20 20 19 19 18 18 18 17 17 17 17 16 16 16 16 15 15 15 14 14 15 15 15 15 14 14 13 13 12 12 12 13 13 13 13 13 13 14 14
21 21 21 21 21 19 19 20 19 19 19 19 18 18 17 17 17 16 16 15 15 15 14 14 14 15 15 15 15 14 14 13 13 12 12 12 12 12 12 13 13 13 13 13
21 20 21 22 21 20 19 19 19 18 19 19 18 18 17 17 17 16 16 15 15 14 14 14 14 15 15 15 15 14 14 13 12 12 12 12 12 12 12 12 12 12 12 12
20 20 20 21 20 20 19 20 19 19 18 19 18 18 18 18 16 16 16 15 15 14 14 14 14 15 15 15 15 14 14 13 12 12 12 12 11 12 12 12 12 12 12 12
21 20 20 20 20 21 19 18 18 18 17 18 18 17 17 16 16 16 16 15 15 14 14 14 14 14 14 14 14 14 13 13 12 12 12 12 11 11 11 11 11 11 11 11
22 22 22 21 21 20 19 18 19 18 18 17 17 16 16 16 16 15 15 15 15 14 14 14 14 14 14 14 14 14 13 13 13 12 12 12 11 11 11 11 11 11 11 11
22 22 21 21 20 19 19 19 18 18 17 17 16 16 15 15 15 15 15 15 15 14 14 14 14 14 15 14 14 14 13 13 13 13 12 12 12 11 11 11 11 11 11 11
23 22 21 20 20 19 18 18 17 17 17 16 15 15 15 15 15 15 15 15 14 14 14 14 14 14 14 14 14 14 14 14 14 13 13 12 12 11 11 11 11 11 11 11
22 21 21 21 20 19 18 17 17 16 16 16 15 15 15 15 15 14 15 14 14 14 14 14 14 14 14 14 14 14 14 14 14 13 13 12 12 12 11 11 11 11 11 11
23 21 21 21 20 19 18 17 17 16 15 15 15 15 15 14 14 14 14 14 14 14 14 14 14 14 14 14 14 14 14 14 14 13 13 12 12 12 11 11 11 10 10 10

GEFSCGP_850_meantemp_060.txt.gz
Temperature
23 20 20 21 22 22 22 21 21 21 21 19 18 17 16 16 16 15 15 15 15 15 16 17 17 17 18 18 19 19 20 20 20 20 20 20 20 20 20 19 19 19 19 19
20 20 22 23 22 21 20 20 19 20 21 19 17 16 16 15 15 15 14 14 14 14 15 16 16 16 16 17 17 18 18 19 19 19 19 19 20 20 19 19 19 19 19 19
20 21 22 22 20 20 20 20 20 20 19 19 17 15 14 15 15 14 14 13 13 13 14 14 15 15 15 16 16 17 17 18 18 19 19 19 19 19 19 19 19 18 18 18
20 20 21 20 20 20 19 20 20 20 18 16 17 14 13 13 13 14 13 13 13 13 13 14 14 14 15 15 15 16 16 17 17 18 18 18 18 18 19 19 18 18 18 18
20 19 19 19 19 19 19 20 19 19 18 16 15 13 12 12 12 13 13 13 12 12 12 13 13 13 14 14 15 15 16 16 17 17 17 18 18 18 18 18 18 18 17 17
20 21 20 19 19 19 18 18 17 15 14 14 14 13 12 12 12 12 12 12 12 12 12 12 13 13 14 14 14 15 15 15 16 16 16 17 17 17 17 17 17 17 17 17
18 19 20 20 18 18 16 15 15 15 13 14 14 13 12 12 13 12 12 12 12 12 12 12 12 13 13 14 14 14 14 15 15 15 16 16 16 16 16 16 16 16 16 16
17 17 19 19 18 18 17 15 14 15 14 14 13 12 12 13 13 13 12 12 12 12 12 12 12 12 13 13 13 13 14 14 14 14 15 15 15 15 15 15 16 16 16 15
16 17 19 19 19 18 17 15 15 14 14 13 13 13 13 13 13 13 13 12 12 12 12 12 12 12 12 13 13 13 13 13 14 14 14 15 15 15 15 15 15 15 15 15
17 17 18 19 18 17 16 16 13 13 14 13 13 13 12 12 12 12 12 12 12 12 12 12 12 12 12 12 13 13 13 13 13 14 14 14 14 14 14 15 15 15 15 15
17 16 17 17 16 16 16 15 13 12 12 12 12 12 13 12 12 11 12 12 13 13 13 13 13 13 13 13 13 13 13 13 13 13 13 14 14 14 14 14 14 14 15 15
16 14 15 17 17 17 17 16 14 13 13 12 11 12 13 12 13 12 13 13 13 13 13 13 13 13 13 13 13 13 12 13 13 13 13 14 14 14 14 14 14 14 14 14
15 14 14 15 15 16 17 16 15 12 11 11 11 12 13 13 13 13 13 14 14 14 14 13 13 13 13 13 13 13 13 13 13 13 13 13 13 14 14 14 14 14 14 14
16 14 14 16 15 15 16 16 16 13 11 12 12 13 13 13 12 14 14 14 14 14 14 14 14 14 14 13 13 13 13 12 13 13 13 13 13 13 13 13 14 14 14 14
15 15 16 16 17 17 16 16 16 15 13 12 13 13 13 13 13 14 14 14 14 14 14 14 14 14 14 13 13 13 12 12 12 13 13 13 13 13 13 13 13 13 14 14
15 16 16 16 17 17 16 16 16 16 15 14 14 13 14 14 14 14 14 14 14 14 14 14 14 14 14 13 13 13 12 12 12 12 12 12 13 13 13 13 13 13 13 13
14 15 15 15 16 16 15 16 16 16 15 15 14 14 14 14 14 14 14 14 14 14 14 14 14 14 14 14 13 13 12 12 12 12 12 12 12 12 12 12 13 13 13 13
15 14 13 14 16 16 15 16 17 16 15 15 15 14 15 15 15 15 14 14 14 14 14 14 14 14 14 13 13 13 13 12 12 12 12 12 12 12 12 12 12 12 12 12
14 14 13 13 15 15 16 17 16 15 15 15 15 15 15 15 14 14 14 14 14 14 14 14 14 14 14 14 13 13 13 12 12 12 12 12 12 12 12 12 12 12 12 12
14 12 13 14 16 16 16 16 17 16 14 15 15 15 15 14 11 12 14 14 14 14 14 14 14 14 14 14 13 13 13 13 12 12 12 12 12 12 12 11 11 11 12 11
15 14 14 14 15 15 16 17 17 14 14 15 16 15 15 14 13 15 15 14 14 14 14 14 14 14 14 14 14 13 13 13 12 12 12 12 12 12 11 11 11 11 11 11
15 14 14 13 14 15 16 16 14 14 16 16 16 15 15 15 15 15 15 14 14 14 14 14 14 14 14 14 14 13 13 13 13 12 12 12 12 12 11 11 11 11 11 11
14 14 13 13 14 16 17 17 17 17 16 16 15 15 15 15 15 15 14 14 14 14 14 14 14 14 14 14 14 13 13 13 13 12 12 12 12 11 11 11 11 11 11 11
16 15 14 14 15 16 17 17 17 17 16 16 15 15 15 15 14 14 14 14 14 14 14 14 14 14 14 14 14 13 13 13 13 12 12 12 11 11 11 11 11 11 11 11
16 16 15 15 15 16 16 17 16 16 16 15 15 15 15 14 14 14 14 14 14 14 14 14 14 14 14 14 14 13 13 13 13 12 12 12 11 11 11 11 11 11 11 10
16 15 14 14 16 16 17 17 16 16 16 15 15 14 14 14 14 14 14 14 14 14 14 14 14 14 14 14 14 13 13 13 13 12 12 12 11 11 11 11 10 10 10 10

GEFSCGP_850_meantemp_066.txt.gz
Temperature
21 18 18 19 20 20 20 19 18 17 16 15 14 13 13 14 13 13 12 12 12 13 13 14 14 14 15 15 15 16 16 16 17 17 17 17 18 18 18 18 18 18 18 18
18 18 19 19 19 19 19 18 17 17 16 15 13 13 13 13 13 13 12 12 12 12 13 13 13 14 14 14 15 15 15 16 16 16 16 17 17 18 18 18 18 18 18 18
18 18 19 19 18 19 19 18 18 17 15 14 14 14 13 13 13 13 12 12 12 12 12 12 13 13 13 14 14 14 14 15 15 15 16 16 16 17 17 17 18 18 18 17
18 18 18 18 17 18 18 18 18 17 15 13 14 13 12 11 12 12 12 12 12 12 12 12 12 13 13 13 13 13 14 14 14 15 15 15 16 16 16 16 17 17 17 17
18 18 17 17 18 17 17 17 16 16 14 13 12 12 12 11 11 11 12 12 12 12 12 12 12 12 12 13 13 13 13 14 14 14 14 15 15 15 15 16 16 16 17 17
17 18 18 18 17 17 16 15 14 12 12 12 12 12 11 11 11 11 12 12 12 12 12 12 12 12 12 12 13 13 13 13 13 14 14 14 14 15 15 15 15 16 16 16
17 17 17 17 17 16 14 14 14 14 12 12 12 12 12 12 12 12 11 12 12 12 12 12 12 12 12 12 12 12 13 13 13 13 14 14 14 14 15 15 15 15 15 15
17 16 16 16 16 16 14 14 14 15 13 12 12 12 12 13 13 13 12 12 12 12 12 12 12 12 12 12 12 12 12 12 13 13 13 13 14 14 14 15 15 15 15 15
15 16 17 17 16 16 15 13 13 11 12 12 12 12 12 13 12 13 13 13 13 13 13 12 13 12 12 12 12 12 12 12 12 12 13 13 13 13 14 14 14 14 15 15
15 16 16 16 16 15 14 13 11 12 13 12 12 12 11 12 12 11 12 12 13 13 13 13 13 13 12 12 12 12 12 12 12 12 12 13 13 13 13 14 14 14 14 14
15 15 15 15 15 15 14 13 10 10 11 12 12 12 12 12 11 11 12 13 13 13 13 13 13 13 13 12 12 12 12 12 12 12 12 12 13 13 13 13 14 14 14 14
14 12 13 15 15 15 15 14 12 12 11 10 10 11 13 12 12 12 12 13 13 13 13 13 13 13 13 12 12 12 12 12 12 12 12 12 12 13 13 13 13 14 14 14
14 13 13 15 14 15 15 14 12 10 9 10 11 12 12 12 12 13 13 13 13 13 13 13 13 13 13 12 12 12 11 11 12 12 12 12 12 12 13 13 13 13 13 14
14 12 14 15 15 14 15 14 13 12 11 11 11 12 12 12 12 13 13 13 13 13 13 13 13 13 13 12 12 12 11 11 12 12 12 12 12 12 12 12 13 13 13 13
13 14 15 15 15 15 15 15 14 13 12 11 12 12 12 12 12 13 13 13 13 13 13 13 13 13 13 12 12 12 11 11 11 12 12 12 12 12 12 12 12 13 13 13
12 14 15 15 15 15 15 15 14 14 13 12 13 13 13 13 13 14 14 13 13 13 13 13 13 13 13 12 12 12 12 11 11 11 11 11 11 12 12 12 12 12 13 13
12 13 13 14 14 15 15 15 14 14 14 13 13 13 13 13 13 14 14 13 13 13 13 13 13 13 13 12 12 12 12 11 11 11 11 11 11 11 11 11 12 12 12 12
12 11 10 12 15 16 15 15 14 14 14 13 13 13 13 14 14 14 14 14 13 13 13 13 13 13 13 13 12 12 12 12 12 11 11 11 11 11 11 11 11 11 12 12
11 11 11 11 13 14 15 15 14 14 14 13 13 13 14 14 13 14 14 14 13 13 13 13 13 13 13 13 12 12 12 12 12 11 11 11 11 11 11 11 11 11 11 12
11 10 10 11 15 15 16 15 16 15 14 14 14 14 13 13 11 12 14 14 14 13 13 13 13 13 13 13 13 12 12 12 12 11 11 11 11 11 11 11 11 11 11 11
14 12 11 12 13 13 14 15 15 14 14 15 15 15 14 14 13 15 14 14 14 14 14 14 13 13 13 13 13 13 12 12 12 11 11 11 11 11 11 11 11 11 11 11
13 12 11 10 13 15 15 14 13 14 16 16 16 16 15 15 15 14 14 14 14 14 14 14 14 13 13 13 13 13 12 12 12 11 11 11 11 11 11 11 11 11 11 11
12 12 11 12 14 15 16 16 17 17 17 16 16 16 15 15 15 14 14 14 14 14 14 14 14 14 13 13 13 13 12 12 12 11 11 11 11 11 11 10 11 11 11 11
12 12 11 11 12 15 16 17 17 17 17 17 16 16 15 15 15 14 14 14 14 14 14 14 14 14 13 13 13 13 12 12 12 11 11 11 11 10 10 10 10 10 10 10
13 11 12 13 13 15 17 17 17 17 17 16 16 15 15 15 15 14 14 14 14 14 14 14 14 14 13 13 13 13 12 12 12 11 11 11 11 10 10 10 10 10 10 10
13 12 13 14 17 16 18 19 18 17 17 16 16 15 15 15 14 14 14 14 14 14 14 14 14 14 13 13 13 13 12 12 12 11 11 11 11 10 10 10 10 10 10 10

GEFSCGP_850_meantemp_072.txt.gz
Temperature
25 26 25 25 25 25 25 25 23 21 20 20 19 18 18 17 17 17 17 16 16 16 15 14 14 14 14 14 14 14 14 14 14 15 15 15 16 16 16 17 17 17 17 17
26 24 23 24 24 24 24 24 22 20 20 20 19 18 18 17 17 16 16 16 16 15 15 14 14 13 13 13 13 13 13 13 14 14 14 15 15 15 16 16 16 16 17 17
25 23 23 23 24 24 23 23 22 21 19 19 20 19 19 18 17 17 16 16 15 15 14 14 13 13 13 13 12 13 12 13 13 13 14 14 14 15 15 15 16 16 16 16
23 23 23 23 22 23 23 21 21 21 21 21 20 21 19 18 18 17 16 16 15 14 14 14 13 13 13 12 12 12 12 12 13 13 13 14 14 14 14 15 15 15 16 16
22 22 23 22 21 21 21 20 21 21 21 21 20 21 20 19 18 17 17 16 15 14 14 14 13 13 13 12 12 12 12 12 12 13 13 13 13 14 14 14 15 15 15 15
22 21 22 21 21 20 21 21 21 21 22 21 20 20 19 18 17 17 17 16 15 15 14 14 13 13 13 12 12 12 12 12 12 12 13 13 13 13 13 14 14 14 15 15
22 22 21 21 22 21 22 22 23 22 22 21 19 19 18 17 17 16 16 15 15 14 14 13 13 13 12 12 12 12 11 12 12 12 12 13 13 13 13 13 14 14 14 15
23 22 21 21 21 21 21 22 22 22 22 21 19 19 18 17 16 16 16 15 15 14 14 13 13 13 12 12 12 11 11 11 12 12 12 12 12 13 13 13 13 14 14 14
24 22 20 20 20 21 21 21 21 22 21 21 20 19 18 17 17 16 16 15 15 14 14 13 13 13 12 12 12 11 11 11 11 12 12 12 12 12 13 13 13 13 14 14
24 22 21 20 20 20 21 20 21 21 21 21 20 19 18 18 17 17 16 16 15 14 14 13 13 13 12 12 12 11 11 11 11 11 12 12 12 12 12 13 13 13 13 14
22 23 21 21 21 20 20 20 20 20 20 20 20 19 18 18 17 17 16 15 15 14 14 13 13 13 12 12 12 12 11 11 11 11 12 12 12 12 12 13 13 13 13 13
21 23 22 20 19 19 20 20 20 21 20 19 19 19 18 17 17 16 16 15 15 14 14 14 13 13 12 12 12 12 11 11 11 11 11 12 12 12 12 12 13 13 13 13
21 22 22 21 20 19 19 19 19 19 20 19 19 19 18 17 17 16 16 15 15 14 14 14 13 13 12 12 12 12 11 11 11 11 11 11 12 12 12 12 12 12 13 13
20 22 22 22 22 21 19 18 18 19 20 20 19 19 18 18 17 16 16 15 15 14 14 14 13 13 12 12 12 12 11 11 11 11 11 11 11 11 12 12 12 12 12 13
21 22 21 20 20 20 20 19 18 19 19 20 19 18 19 18 17 16 16 15 15 15 14 14 13 13 13 12 12 12 11 11 11 11 11 11 11 11 11 12 12 12 12 12
21 21 21 20 19 19 19 19 19 19 19 19 18 18 19 17 17 16 16 15 15 15 14 14 14 13 13 13 12 12 11 11 11 11 11 11 11 11 11 11 12 12 12 12
21 22 21 21 19 20 21 21 20 19 19 19 19 20 19 18 17 17 16 15 15 14 14 14 13 13 13 13 12 12 12 11 11 11 11 11 11 11 11 11 11 11 12 12
21 21 21 21 20 20 22 20 20 20 20 20 19 19 18 18 17 16 15 15 15 14 14 13 13 13 13 13 12 12 12 11 11 11 11 11 11 11 11 11 11 11 11 11
20 21 21 22 22 22 21 20 20 20 20 20 20 19 18 17 16 16 15 15 14 14 13 13 13 13 13 13 12 12 12 12 11 11 11 11 11 11 11 11 11 11 11 11
18 20 21 21 21 22 22 21 19 20 20 20 19 19 18 17 18 18 16 15 14 14 13 13 13 13 13 13 12 12 12 12 11 11 11 11 11 11 11 11 11 11 11 11
20 20 21 21 22 23 22 19 18 20 22 20 19 18 18 18 19 17 15 14 14 14 14 13 13 13 13 13 12 12 12 11 11 11 11 11 11 11 11 11 11 10 10 10
22 22 21 21 22 23 19 19 20 22 20 19 19 18 17 17 16 15 15 14 14 14 14 14 13 13 13 13 12 12 12 11 11 11 11 11 11 11 10 11 10 10 10 10
22 23 23 22 23 21 19 20 20 19 19 18 18 18 17 16 16 15 15 14 14 14 14 14 13 13 13 13 12 12 12 11 11 11 11 11 10 11 11 10 10 10 10 10
22 19 20 21 22 20 18 18 18 18 18 18 17 17 16 16 16 15 15 15 14 14 14 14 13 13 13 13 13 12 12 12 11 11 11 11 10 10 10 10 10 10 10 10
22 20 21 22 22 19 18 18 18 17 17 17 17 16 16 16 16 15 15 15 14 14 14 14 14 13 13 13 13 12 12 12 11 11 11 11 11 10 10 10 10 10 10 10
21 21 22 23 23 22 22 20 19 18 17 17 17 16 16 16 15 15 15 14 14 14 14 14 14 13 13 13 13 12 12 12 11 11 11 11 11 10 10 10 10 10 10 10

GEFSCGP_850_meantemp_078.txt.gz
Temperature
29 28 27 27 27 27 28 27 27 25 24 24 23 22 22 21 21 21 20 20 19 18 18 17 16 16 15 15 15 14 14 14 14 14 14 14 15 15 15 16 16 16 17 17
29 28 28 28 28 28 28 27 27 25 24 25 24 23 22 21 21 20 20 19 19 18 18 17 16 16 15 15 14 14 14 14 14 13 14 14 14 14 15 15 16 16 16 16
28 27 28 28 28 27 27 27 26 25 24 24 24 22 21 21 21 20 20 19 18 18 17 17 16 15 15 14 14 13 13 13 13 13 13 14 14 14 14 15 15 15 16 16
27 27 27 27 27 26 26 26 25 25 24 24 24 22 21 21 21 20 20 19 18 17 17 16 16 15 15 14 14 13 13 13 13 13 13 13 13 13 14 14 14 15 15 15
27 27 27 26 25 25 25 25 25 25 24 24 25 23 21 22 20 20 20 19 18 17 17 16 15 15 14 14 13 13 13 13 13 13 13 13 13 13 13 14 14 14 15 15
26 26 26 26 25 25 25 25 25 25 24 23 24 23 21 21 20 20 20 19 18 17 16 16 15 15 14 14 13 13 13 13 12 12 12 12 13 13 13 13 14 14 14 15
26 26 25 25 25 25 26 25 24 24 23 24 24 23 20 20 20 20 19 18 17 17 16 16 15 15 14 14 13 13 13 12 12 12 12 12 12 12 13 13 13 14 14 14
27 25 25 25 25 24 25 25 24 23 24 24 23 22 20 21 20 19 19 18 17 17 16 16 15 15 14 14 13 13 13 13 12 12 12 12 12 12 12 13 13 13 14 14
28 25 24 24 25 25 25 25 25 24 24 24 24 22 20 21 20 20 19 18 18 17 16 16 15 15 14 14 13 13 13 13 12 12 12 12 12 12 12 13 13 13 13 14
28 25 25 24 24 24 24 24 24 24 23 23 24 23 21 20 20 20 19 18 17 17 16 16 15 15 14 14 14 13 13 13 12 12 12 12 12 12 12 12 13 13 13 13
27 26 24 24 24 24 24 25 24 24 24 22 22 21 21 20 20 19 19 18 17 17 16 16 15 15 14 14 14 13 13 13 12 12 12 12 12 12 12 12 12 13 13 13
26 26 26 25 24 24 24 24 24 23 23 23 22 20 21 21 20 19 19 18 17 17 17 16 15 15 14 14 14 13 13 13 12 12 12 12 12 12 12 12 12 12 13 13
25 25 25 24 23 23 23 23 23 23 23 23 22 20 21 21 20 19 19 18 17 17 17 16 16 15 15 14 14 13 13 13 13 12 12 12 12 12 12 12 12 12 12 12
23 25 25 24 23 24 24 23 23 22 22 23 23 21 21 21 20 19 19 18 18 17 17 16 16 15 15 14 14 13 13 13 13 12 12 12 11 12 12 12 12 12 12 12
24 25 26 25 24 24 24 23 23 22 23 22 22 22 22 21 20 20 19 18 18 17 17 16 16 15 15 15 14 14 13 13 13 12 12 11 11 11 11 12 12 12 12 12
25 25 25 24 24 24 24 24 23 23 23 23 22 22 23 21 20 20 19 18 18 17 17 16 16 15 15 15 14 14 13 13 13 12 11 11 11 11 11 11 11 11 11 12
25 25 24 25 25 24 24 24 24 23 24 23 22 22 22 21 20 20 19 19 18 17 17 16 16 15 15 15 14 14 14 13 12 12 11 11 11 11 11 11 11 11 11 12
25 25 24 25 25 23 24 25 25 24 24 24 23 23 22 21 20 20 19 19 18 17 16 16 15 15 15 15 14 14 14 13 12 12 11 11 11 11 11 11 11 11 11 11
25 24 24 25 25 25 24 25 24 23 23 25 24 23 22 21 20 20 19 18 18 17 16 15 15 15 15 14 14 14 14 13 12 12 11 11 11 11 11 11 11 11 11 11
24 24 23 24 23 24 25 25 25 24 23 25 24 23 22 21 20 20 19 18 17 16 16 15 15 15 15 14 14 14 13 12 12 11 11 11 11 11 11 11 11 11 11 11
22 23 22 23 24 26 24 24 24 22 23 24 24 23 22 21 20 20 19 18 17 16 15 15 15 15 14 14 14 14 13 12 12 11 11 11 11 11 11 11 11 11 11 11
25 25 24 24 24 24 23 23 23 24 24 23 23 23 22 21 20 19 18 18 17 16 15 15 15 15 14 14 14 13 13 12 12 12 11 11 11 11 11 11 11 11 11 11
26 26 26 26 25 24 24 24 24 24 24 23 23 22 22 21 20 19 18 17 17 16 16 15 15 15 15 14 14 13 13 12 12 12 12 11 11 11 11 11 11 11 11 11
27 27 26 25 26 25 24 24 24 23 23 23 22 22 21 20 20 19 18 18 17 16 16 15 15 15 15 14 14 13 13 13 12 12 12 12 11 11 11 11 11 11 11 11
26 26 25 25 25 26 25 24 24 23 22 22 22 21 21 20 20 19 18 18 17 17 16 15 15 15 15 15 14 14 13 13 13 13 12 12 12 11 11 11 11 11 11 11
27 26 25 25 26 26 26 25 23 23 22 21 21 21 20 20 19 19 18 18 17 17 16 16 15 15 15 15 14 14 13 13 13 13 12 12 12 12 11 11 11 11 11 11

GEFSCGP_850_meantemp_084.txt.gz
Temperature
25 22 22 23 23 23 23 22 21 21 21 20 18 17 17 18 18 18 18 17 17 16 16 16 16 15 15 14 14 14 14 13 13 13 13 14 14 14 14 14 15 15 15 15
22 22 24 24 24 23 22 21 20 21 22 20 18 17 17 18 18 18 18 17 17 16 16 16 15 15 15 14 14 14 13 13 13 13 13 13 13 13 14 14 14 14 15 15
22 23 25 25 23 23 22 21 21 21 21 20 18 17 17 17 18 18 17 17 17 16 16 15 15 15 14 14 14 13 13 13 13 13 13 13 13 13 14 14 14 14 14 15
23 24 25 24 23 22 22 23 22 21 19 17 18 16 16 16 17 17 17 17 16 16 16 15 15 15 14 14 14 13 13 13 13 13 12 12 12 13 13 13 13 14 14 14
23 23 23 23 23 23 22 23 22 21 19 18 17 16 15 16 16 16 16 16 16 16 16 15 15 15 14 14 14 13 13 13 13 12 12 12 12 12 12 13 13 13 14 14
23 23 23 23 23 23 22 20 19 17 16 17 18 16 15 14 16 16 16 16 16 16 16 15 15 15 14 14 14 13 13 13 13 12 12 12 12 12 12 13 13 13 13 14
22 22 23 23 22 21 20 17 17 17 16 16 17 16 15 16 16 17 16 17 16 16 16 15 15 15 14 14 14 13 13 13 13 12 12 12 12 12 12 12 12 13 13 13
20 20 22 22 22 21 20 17 17 18 17 16 17 16 16 17 18 18 17 17 16 16 16 15 15 14 14 14 13 13 13 13 13 12 12 12 12 12 12 12 12 12 13 13
19 20 22 22 22 22 21 18 17 16 17 17 16 16 17 17 16 17 16 16 16 16 16 15 15 14 14 14 13 13 13 13 12 12 12 12 12 12 12 12 12 12 12 13
19 20 21 22 22 22 21 19 16 17 17 17 17 16 14 16 16 16 16 16 16 16 16 15 15 15 14 14 13 13 13 13 12 12 12 12 12 12 12 12 12 12 12 12
20 19 20 21 21 20 21 20 17 15 15 16 16 16 16 15 15 15 16 16 16 16 16 15 15 15 14 14 14 13 13 13 12 12 12 12 12 12 12 12 12 12 12 12
19 16 18 20 20 21 21 20 17 17 17 15 14 15 17 16 16 17 17 17 17 16 16 15 15 15 14 14 14 13 13 12 12 12 12 12 12 12 12 12 12 12 12 12
19 17 17 18 18 20 21 20 18 15 15 15 15 16 16 16 16 17 17 17 17 16 16 16 15 15 14 14 14 13 13 12 12 12 12 12 12 12 11 11 12 12 12 12
19 17 17 19 18 18 20 20 19 16 15 16 16 17 17 15 15 16 17 17 17 16 16 15 15 15 14 14 14 13 13 13 12 12 12 12 11 11 11 11 11 11 12 12
17 18 20 19 20 20 20 20 19 18 16 16 17 17 17 16 16 17 17 17 17 16 16 15 15 15 14 14 14 13 13 13 12 12 12 11 11 11 11 11 11 11 11 12
17 19 20 20 21 21 21 20 19 19 18 17 18 17 17 18 18 17 17 17 17 16 16 16 15 15 14 14 14 13 13 12 12 12 12 11 11 11 11 11 11 11 11 11
17 18 19 18 20 21 19 19 19 19 19 18 17 17 16 16 16 17 17 17 17 17 16 16 15 15 14 14 14 13 13 12 12 12 11 11 11 11 11 11 11 11 11 11
17 17 15 17 19 20 19 20 20 19 20 19 19 18 17 18 19 19 19 18 17 17 16 16 15 15 14 14 14 13 13 12 12 12 12 11 11 11 11 11 11 11 11 11
17 17 16 16 18 18 20 21 21 20 20 19 18 18 19 19 18 18 18 18 18 17 17 16 15 15 15 14 14 13 13 12 12 12 11 11 11 11 11 11 11 11 11 11
16 15 15 16 19 19 20 21 22 21 20 20 20 18 18 18 14 16 19 18 18 17 17 16 15 15 15 14 14 13 13 13 12 12 11 11 11 11 11 11 11 11 11 11
18 16 16 16 17 17 19 21 21 19 19 21 21 21 19 18 18 20 19 18 18 17 17 16 16 15 15 14 14 14 13 13 12 12 12 11 11 11 11 11 11 11 11 11
16 16 15 15 17 18 21 21 19 19 22 22 22 22 21 21 21 20 19 19 18 17 17 16 16 15 15 14 14 14 13 13 12 12 12 12 11 11 11 11 11 11 11 11
16 16 15 16 18 21 23 23 24 24 23 23 23 22 22 21 21 20 19 19 18 18 17 16 16 15 15 15 14 14 14 13 13 12 12 12 11 11 11 11 11 11 11 11
18 18 17 18 18 22 23 24 24 23 23 23 23 22 22 21 21 20 19 19 18 18 17 17 16 16 15 15 14 14 14 13 13 12 12 12 12 11 11 11 11 11 11 11
19 19 18 19 19 22 23 24 24 24 23 23 23 22 22 21 21 20 19 19 18 18 17 17 16 16 16 15 15 14 14 13 13 13 12 12 12 11 11 11 11 11 11 11
16 17 17 18 20 19 23 24 24 23 23 23 22 22 22 21 21 20 20 19 19 18 18 17 16 16 16 15 15 14 14 14 13 13 13 12 12 12 11 11 11 11 11 11

GEFSCGP_850_meantemp_090.txt.gz
Temperature
23 21 20 20 20 21 21 20 19 19 19 18 17 16 16 16 16 16 16 16 16 16 16 15 15 15 14 14 14 13 13 13 13 13 13 13 13 13 13 13 13 14 14 14
21 21 22 22 21 21 20 20 19 19 19 18 17 16 16 16 16 16 16 16 16 16 16 15 15 15 14 14 14 13 13 13 13 13 12 12 12 12 13 13 13 13 13 14
22 22 22 22 21 21 20 20 19 19 18 17 17 16 16 16 16 16 16 16 16 16 16 15 15 15 14 14 14 13 13 13 13 12 12 12 12 12 12 13 13 13 13 13
21 22 22 22 21 21 20 20 20 19 17 16 17 15 15 15 15 15 16 16 16 16 16 15 15 15 14 14 13 13 13 13 12 12 12 12 12 12 12 12 12 13 13 13
21 22 22 22 22 21 20 19 19 18 17 16 16 15 14 15 15 14 15 16 16 16 16 15 15 14 14 14 13 13 13 13 12 12 12 12 12 12 12 12 12 12 12 13
21 21 22 21 20 20 18 17 16 14 14 16 16 15 14 13 14 15 15 16 16 16 16 15 15 14 14 14 13 13 13 13 12 12 12 12 12 12 12 12 12 12 12 12
21 21 21 21 20 19 18 16 16 16 15 15 15 15 14 15 14 15 16 16 16 16 16 15 15 14 14 14 13 13 13 13 12 12 12 12 12 12 12 12 12 12 12 12
20 20 21 21 20 19 18 17 16 17 15 14 15 15 15 16 16 16 16 17 16 16 15 15 15 14 14 14 13 13 13 13 12 12 12 12 11 11 11 11 11 11 12 12
19 19 20 21 20 19 17 16 15 14 15 15 14 15 15 16 16 16 16 16 16 16 16 15 15 14 14 14 13 13 13 13 12 12 12 12 11 11 11 11 11 11 11 12
19 19 20 20 20 19 18 14 13 14 16 15 15 15 15 16 15 14 15 16 16 16 16 15 15 14 14 14 13 13 13 12 12 12 12 11 11 11 11 11 11 11 11 11
19 18 19 19 20 19 17 16 13 12 13 14 14 14 15 15 15 14 15 16 16 16 16 15 15 15 14 14 14 13 13 13 12 12 12 11 11 11 11 11 11 11 11 11
17 16 17 18 19 19 18 17 14 15 15 12 13 14 15 15 15 16 16 17 17 16 16 15 15 15 14 14 14 13 13 12 12 12 12 11 11 11 11 11 11 11 11 11
16 16 17 18 17 18 19 16 15 13 12 11 13 14 15 15 15 16 16 17 17 16 16 15 15 15 14 14 14 13 13 12 12 12 12 11 11 11 11 11 11 11 11 11
17 16 17 18 18 17 18 17 14 14 13 13 13 14 15 15 14 16 17 17 17 16 16 15 15 15 14 14 14 13 13 12 12 12 11 11 11 11 11 11 11 11 11 11
16 17 18 17 18 18 18 18 15 15 15 14 15 15 15 15 15 17 17 17 17 16 16 16 15 15 15 14 14 13 13 12 12 12 12 11 11 11 11 11 11 11 11 11
15 17 18 19 18 18 18 18 16 16 16 15 15 15 15 17 17 17 17 17 17 17 16 16 15 15 15 14 14 13 13 12 12 12 12 11 11 11 11 11 11 11 11 11
14 16 17 17 17 19 18 18 17 17 16 16 16 16 16 16 16 18 19 18 18 18 17 16 16 15 15 14 14 13 13 12 12 12 12 11 11 11 11 11 11 11 11 11
14 14 13 15 18 19 18 18 17 17 17 15 16 16 16 17 19 19 19 19 19 18 17 17 16 15 15 14 14 13 13 13 12 12 12 11 11 11 11 11 11 11 11 11
13 14 13 14 16 17 18 19 18 18 19 18 16 16 18 17 17 19 20 19 19 18 18 17 16 16 15 14 14 13 13 13 12 12 12 11 11 11 11 11 11 11 11 11
13 12 13 14 18 18 19 19 19 19 19 19 18 18 17 16 15 17 20 20 19 18 18 17 16 16 15 15 14 14 13 13 12 12 12 11 11 11 11 11 11 11 11 11
15 13 13 14 16 16 17 19 20 19 19 21 20 20 18 17 18 21 20 20 19 19 18 17 16 16 15 15 14 14 14 13 13 12 12 12 11 11 11 11 11 11 11 11
14 14 13 13 16 17 18 18 18 18 21 21 21 21 21 21 21 20 20 20 19 19 18 17 17 16 16 15 15 14 14 13 13 12 12 12 11 11 11 11 11 11 11 11
13 14 13 14 16 18 18 18 20 20 20 21 21 21 21 21 21 21 20 20 19 19 18 17 17 16 16 15 15 15 14 13 13 13 12 12 12 11 11 11 11 11 11 11
13 13 13 13 15 17 18 18 19 20 20 21 21 21 21 21 21 20 20 20 19 19 18 18 17 17 16 16 15 15 14 14 13 13 13 12 12 12 11 11 11 11 11 11
13 12 14 15 14 17 19 18 19 20 21 21 21 21 21 21 21 20 20 20 19 19 18 18 17 17 17 16 16 15 15 14 14 13 13 13 12 12 12 11 11 11 11 11
11 11 13 15 14 13 16 17 18 20 20 21 21 21 20 20 20 20 20 20 19 19 18 18 17 17 17 16 16 15 15 14 14 14 13 13 12 12 12 12 11 11 11 11